N394AM -KGWS

Flight info

Callsign N394AM
Flight time N/A
Altitude VFR
Route
Aircraft PA24/L-DOV/C

Departure

Time N/A
Airport -

Arrival

Time 2026-04-22 00:43
Airport Glenwood Springs Municipal Airport (KGWS)
Time Latitude Longitude Altitude Speed Heading
2026-04-22 00:33 39.32821 -106.94171 10582 ft 135 kts 300°
2026-04-22 00:34 39.33361 -106.95218 10576 ft 146 kts 298°
2026-04-22 00:34 39.33904 -106.96344 10580 ft 150 kts 297°
2026-04-22 00:34 39.34441 -106.97523 10567 ft 154 kts 295°
2026-04-22 00:34 39.35020 -106.98689 10547 ft 154 kts 302°
2026-04-22 00:35 39.35590 -106.99865 10537 ft 154 kts 299°
2026-04-22 00:35 39.36181 -107.01025 10525 ft 154 kts 296°
2026-04-22 00:35 39.36735 -107.02210 10514 ft 154 kts 294°
2026-04-22 00:35 39.37286 -107.03384 10501 ft 152 kts 297°
2026-04-22 00:36 39.37754 -107.04584 10493 ft 151 kts 288°
2026-04-22 00:36 39.38221 -107.05793 10493 ft 151 kts 291°
2026-04-22 00:36 39.38689 -107.07033 10382 ft 157 kts 288°
2026-04-22 00:36 39.39127 -107.08304 10360 ft 152 kts 290°
2026-04-22 00:37 39.39543 -107.09555 10346 ft 152 kts 288°
2026-04-22 00:37 39.40019 -107.10801 10306 ft 155 kts 289°
2026-04-22 00:37 39.40484 -107.12033 10360 ft 151 kts 294°
2026-04-22 00:37 39.40926 -107.13278 10317 ft 154 kts 292°
2026-04-22 00:38 39.41366 -107.14533 10347 ft 153 kts 289°
2026-04-22 00:38 39.41859 -107.15745 10338 ft 154 kts 299°
2026-04-22 00:38 39.42450 -107.16949 10202 ft 163 kts 303°
2026-04-22 00:38 39.43045 -107.18188 10220 ft 157 kts 295°
2026-04-22 00:39 39.43643 -107.19354 10217 ft 158 kts 296°
2026-04-22 00:39 39.44229 -107.20591 10093 ft 163 kts 297°
2026-04-22 00:39 39.44855 -107.21777 9916 ft 162 kts 300°
2026-04-22 00:39 39.45469 -107.23001 9710 ft 160 kts 296°
2026-04-22 00:40 39.46095 -107.24263 9233 ft 172 kts 303°
2026-04-22 00:40 39.46734 -107.25516 9092 ft 162 kts 301°
2026-04-22 00:40 39.47366 -107.26752 8765 ft 171 kts 297°
2026-04-22 00:40 39.47967 -107.28070 8589 ft 164 kts 297°
2026-04-22 00:41 39.48344 -107.29561 7350 ft 200 kts 273°
2026-04-22 00:41 39.47753 -107.30854 7516 ft 162 kts 198°
2026-04-22 00:41 39.46742 -107.30641 7863 ft 121 kts 160°
2026-04-22 00:41 39.46278 -107.29911 7880 ft 128 kts 93°
2026-04-22 00:42 39.46930 -107.29112 7433 ft 136 kts 11°
2026-04-22 00:42 39.47876 -107.29263 6840 ft 145 kts 334°
2026-04-22 00:42 39.48745 -107.29744 6434 ft 126 kts 330°
2026-04-22 00:42 39.49488 -107.30189 6095 ft 110 kts 327°
2026-04-22 00:43 39.50113 -107.30606 5886 ft 93 kts 328°
2026-04-22 00:43 39.50586 -107.30903 5866 ft 47 kts 339°
2026-04-22 00:43 39.50703 -107.30983 5863 ft 8 kts 339°
2026-04-22 00:43 39.50738 -107.30965 5863 ft 6 kts 109°
2026-04-22 00:44 39.50715 -107.30943 5863 ft 0 kts 143°
2026-04-22 00:44 39.50712 -107.30935 5863 ft 3 kts 129°
2026-04-22 00:44 39.50710 -107.30952 5862 ft 5 kts 323°
2026-04-22 00:44 39.50752 -107.30944 5863 ft 9 kts 24°
2026-04-22 00:45 39.50820 -107.30976 5866 ft 8 kts 324°
2026-04-22 00:45 39.50899 -107.31033 5864 ft 17 kts 330°
2026-04-22 00:45 39.50961 -107.31073 5865 ft 15 kts 335°
2026-04-22 00:45 39.50997 -107.31096 5867 ft 0 kts 332°
2026-04-22 00:49 39.51014 -107.31108 5865 ft 0 kts 296°
2026-04-22 00:51 39.51019 -107.31129 5870 ft 6 kts 253°
2026-04-22 00:51 39.51011 -107.31143 5870 ft 0 kts 235°
2026-04-22 00:54 39.51008 -107.31152 5871 ft 8 kts 244°
2026-04-22 00:54 39.50962 -107.31142 5869 ft 24 kts 152°
2026-04-22 00:54 39.50616 -107.30928 5866 ft 79 kts 154°
2026-04-22 00:55 39.50097 -107.30482 5988 ft 96 kts 152°
2026-04-22 00:55 39.49491 -107.30101 6186 ft 98 kts 162°
2026-04-22 00:55 39.48285 -107.29081 6648 ft 109 kts 133°
2026-04-22 00:56 39.47871 -107.28267 6913 ft 109 kts 122°
2026-04-22 00:56 39.47505 -107.27366 7140 ft 117 kts 119°
2026-04-22 00:56 39.47151 -107.26420 7449 ft 116 kts 129°
2026-04-22 00:56 39.46647 -107.25618 7757 ft 113 kts 131°
2026-04-22 00:57 39.46206 -107.24767 8054 ft 114 kts 130°
2026-04-22 00:57 39.45785 -107.23891 8291 ft 113 kts 127°
2026-04-22 00:57 39.45429 -107.22980 8488 ft 116 kts 123°
2026-04-22 00:57 39.45345 -107.21899 8562 ft 129 kts 90°
2026-04-22 00:58 39.45720 -107.20861 8749 ft 128 kts 54°
2026-04-22 00:58 39.46242 -107.19940 8899 ft 132 kts 51°
2026-04-22 00:58 39.46801 -107.18985 9105 ft 129 kts 53°
2026-04-22 00:58 39.47323 -107.18070 9330 ft 129 kts 50°
2026-04-22 00:59 39.47872 -107.17122 9522 ft 132 kts 53°
2026-04-22 00:59 39.48418 -107.16200 9804 ft 131 kts 51°
2026-04-22 00:59 39.48984 -107.15236 9991 ft 135 kts 53°
2026-04-22 00:59 39.49525 -107.14270 10242 ft 132 kts 54°
2026-04-22 01:00 39.50179 -107.13404 10387 ft 135 kts 42°
2026-04-22 01:00 39.50872 -107.12611 10638 ft 132 kts 39°
2026-04-22 01:00 39.51580 -107.11817 10775 ft 137 kts 40°
2026-04-22 01:00 39.52293 -107.11020 10977 ft 136 kts 38°
2026-04-22 01:01 39.52785 -107.10472 10980 ft 145 kts 40°
2026-04-22 01:01 39.53534 -107.09652 11197 ft 137 kts 40°
2026-04-22 01:01 39.54535 -107.08550 11365 ft 143 kts 39°
2026-04-22 01:01 39.55311 -107.07710 11449 ft 152 kts 40°
2026-04-22 01:02 39.56102 -107.06795 11540 ft 153 kts 41°
2026-04-22 01:02 39.56635 -107.06164 11469 ft 156 kts 40°
2026-04-22 01:02 39.57458 -107.05239 11424 ft 157 kts 40°
2026-04-22 01:02 39.58401 -107.04563 11393 ft 160 kts 10°
2026-04-22 01:03 39.59496 -107.04412 11464 ft 153 kts 360°
2026-04-22 01:03 39.60516 -107.04172 11486 ft 153 kts 15°
2026-04-22 01:03 39.61535 -107.03492 11258 ft 170 kts 26°
2026-04-22 01:03 39.62583 -107.02727 10987 ft 179 kts 30°
2026-04-22 01:04 39.63660 -107.01901 10752 ft 183 kts 28°
2026-04-22 01:04 39.64750 -107.01036 10451 ft 185 kts 28°
2026-04-22 01:04 39.65647 -106.99800 10061 ft 190 kts 64°
2026-04-22 01:04 39.65762 -106.98233 10022 ft 176 kts 114°
2026-04-22 01:05 39.64881 -106.97128 9539 ft 176 kts 149°
2026-04-22 01:05 39.63889 -106.96276 9293 ft 168 kts 150°
2026-04-22 01:05 39.63021 -106.95429 9153 ft 156 kts 137°
2026-04-22 01:05 39.62636 -106.94211 9125 ft 141 kts 98°
2026-04-22 01:06 39.62700 -106.92996 8996 ft 125 kts 84°
2026-04-22 01:06 39.62825 -106.91920 8797 ft 118 kts 84°
2026-04-22 01:06 39.62941 -106.90898 8670 ft 110 kts 83°
2026-04-22 01:06 39.63045 -106.89936 8565 ft 106 kts 83°
2026-04-22 01:07 39.63149 -106.89012 8483 ft 100 kts 85°
2026-04-22 01:07 39.63249 -106.88122 8431 ft 101 kts 78°
2026-04-22 01:07 39.63418 -106.87212 8368 ft 107 kts 73°
2026-04-22 01:07 39.63630 -106.86304 8346 ft 106 kts 70°
2026-04-22 01:08 39.63885 -106.85412 8280 ft 107 kts 67°
2026-04-22 01:08 39.64305 -106.84646 8108 ft 114 kts 24°
2026-04-22 01:08 39.65037 -106.84616 8106 ft 97 kts 325°
2026-04-22 01:08 39.65363 -106.85306 8008 ft 95 kts 261°
2026-04-22 01:09 39.65159 -106.86193 7731 ft 109 kts 249°
2026-04-22 01:09 39.64915 -106.87120 7412 ft 110 kts 251°
2026-04-22 01:09 39.64712 -106.88078 7113 ft 113 kts 253°
2026-04-22 01:09 39.64552 -106.89065 6827 ft 111 kts 262°
2026-04-22 01:10 39.64449 -106.90038 6590 ft 109 kts 263°
2026-04-22 01:10 39.64352 -106.90911 6504 ft 82 kts 262°
2026-04-22 01:10 39.64289 -106.91481 6484 ft 43 kts 258°
2026-04-22 01:10 39.64192 -106.91578 6480 ft 0 kts 167°
2026-04-22 01:11 39.64182 -106.91570 6469 ft 5 kts 133°
2026-04-22 01:11 39.64180 -106.91488 6483 ft 15 kts 82°
2026-04-22 01:11 39.64200 -106.91311 6489 ft 24 kts 81°
2026-04-22 01:11 39.64227 -106.91081 6497 ft 29 kts 82°
2026-04-22 01:12 39.64256 -106.90801 6507 ft 34 kts 82°
2026-04-22 01:12 39.64291 -106.90481 6518 ft 38 kts 82°
2026-04-22 01:12 39.64324 -106.90195 6529 ft 30 kts 82°
2026-04-22 01:12 39.64340 -106.90059 6533 ft 2 kts 81°
2026-04-22 01:13 39.64343 -106.90041 6534 ft 0 kts 75°
2026-04-22 01:15 39.64346 -106.90027 6535 ft 7 kts 69°
2026-04-22 01:16 39.64358 -106.90016 6535 ft 0 kts
2026-04-22 01:18 39.64426 -106.90027 6536 ft 17 kts 318°
2026-04-22 01:18 39.64422 -106.90260 6529 ft 47 kts 261°
2026-04-22 01:19 39.64352 -106.90882 6515 ft 87 kts 261°
2026-04-22 01:19 39.64257 -106.91744 6572 ft 103 kts 263°
2026-04-22 01:19 39.64173 -106.92677 6779 ft 104 kts 265°
2026-04-22 01:19 39.63981 -106.93573 7015 ft 107 kts 231°
2026-04-22 01:20 39.63309 -106.93729 7275 ft 108 kts 155°
2026-04-22 01:20 39.62900 -106.92931 7592 ft 113 kts 101°
2026-04-22 01:20 39.62907 -106.91876 7825 ft 119 kts 84°
2026-04-22 01:20 39.63026 -106.90820 8092 ft 116 kts 82°
2026-04-22 01:21 39.63153 -106.89784 8280 ft 117 kts 77°
2026-04-22 01:21 39.63450 -106.88759 8401 ft 126 kts 66°
2026-04-22 01:21 39.63839 -106.87726 8574 ft 128 kts 60°
2026-04-22 01:21 39.64259 -106.86702 8719 ft 130 kts 62°
2026-04-22 01:22 39.64684 -106.85670 8870 ft 131 kts 62°
2026-04-22 01:22 39.65104 -106.84622 9059 ft 130 kts 64°
2026-04-22 01:22 39.65504 -106.83569 9263 ft 131 kts 63°
2026-04-22 01:22 39.65873 -106.82496 9440 ft 132 kts 65°
2026-04-22 01:23 39.66256 -106.81407 9592 ft 134 kts 66°
2026-04-22 01:23 39.66646 -106.80300 9730 ft 135 kts 62°
2026-04-22 01:23 39.67120 -106.79258 9873 ft 134 kts 58°
2026-04-22 01:23 39.67628 -106.78249 10000 ft 133 kts 55°
2026-04-22 01:24 39.68151 -106.77244 10108 ft 135 kts 56°
2026-04-22 01:24 39.68634 -106.76200 10206 ft 136 kts 69°
2026-04-22 01:24 39.68809 -106.74996 10305 ft 135 kts 87°
2026-04-22 01:24 39.68872 -106.73796 10465 ft 134 kts 88°
2026-04-22 01:25 39.68929 -106.72570 10543 ft 137 kts 87°
2026-04-22 01:25 39.68932 -106.71363 10691 ft 133 kts 99°
2026-04-22 01:25 39.68749 -106.70159 10768 ft 138 kts 109°
2026-04-22 01:25 39.68501 -106.68999 10921 ft 133 kts 110°
2026-04-22 01:26 39.68226 -106.67832 11007 ft 136 kts 111°
2026-04-22 01:26 39.67931 -106.66672 11127 ft 134 kts 110°
2026-04-22 01:26 39.67632 -106.65516 11189 ft 137 kts 113°
2026-04-22 01:26 39.67325 -106.64346 11299 ft 135 kts 112°
2026-04-22 01:27 39.67035 -106.63171 11376 ft 138 kts 110°
2026-04-22 01:27 39.66742 -106.61989 11463 ft 139 kts 113°
2026-04-22 01:27 39.66432 -106.60751 11473 ft 146 kts 110°
2026-04-22 01:27 39.66118 -106.59488 11471 ft 151 kts 112°
2026-04-22 01:28 39.65780 -106.58178 11461 ft 155 kts 113°
2026-04-22 01:28 39.65411 -106.56845 11459 ft 158 kts 112°
2026-04-22 01:28 39.65078 -106.55465 11457 ft 162 kts 111°
2026-04-22 01:28 39.64736 -106.54073 11441 ft 163 kts 109°
2026-04-22 01:29 39.64395 -106.52673 11419 ft 163 kts 112°
2026-04-22 01:29 39.63947 -106.51324 11425 ft 162 kts 118°
2026-04-22 01:29 39.63528 -106.49973 11427 ft 162 kts 117°
2026-04-22 01:29 39.63044 -106.48655 11429 ft 162 kts 122°
2026-04-22 01:30 39.62475 -106.47371 11423 ft 162 kts 123°
2026-04-22 01:30 39.61761 -106.46278 11424 ft 161 kts 136°
2026-04-22 01:30 39.60960 -106.45250 11422 ft 163 kts 141°
2026-04-22 01:30 39.60145 -106.44246 11420 ft 162 kts 140°
2026-04-22 01:31 39.59340 -106.43232 11422 ft 162 kts 143°
2026-04-22 01:31 39.58481 -106.42290 11422 ft 163 kts 141°
2026-04-22 01:31 39.57633 -106.41314 11422 ft 163 kts 143°
2026-04-22 01:31 39.56786 -106.40354 11433 ft 162 kts 142°
2026-04-22 01:32 39.55868 -106.39514 11443 ft 161 kts 151°
2026-04-22 01:32 39.54943 -106.38704 11454 ft 160 kts 148°
2026-04-22 01:32 39.54024 -106.37892 11464 ft 160 kts 150°
2026-04-22 01:32 39.53088 -106.37113 11482 ft 160 kts 152°
2026-04-22 01:33 39.52122 -106.36412 11489 ft 160 kts 153°
2026-04-22 01:33 39.51152 -106.35739 11507 ft 160 kts 154°
2026-04-22 01:33 39.50159 -106.35072 11521 ft 162 kts 155°
2026-04-22 01:33 39.49152 -106.34392 11532 ft 164 kts 155°
2026-04-22 01:34 39.48156 -106.33675 11547 ft 163 kts 152°
2026-04-22 01:34 39.47132 -106.32980 11559 ft 164 kts 156°
2026-04-22 01:34 39.46115 -106.32309 11575 ft 164 kts 154°
2026-04-22 01:34 39.45053 -106.31750 11588 ft 165 kts 171°
2026-04-22 01:35 39.43948 -106.31511 11601 ft 162 kts 173°
2026-04-22 01:35 39.42832 -106.31266 11612 ft 163 kts 173°
2026-04-22 01:35 39.41718 -106.31076 11626 ft 161 kts 180°
2026-04-22 01:35 39.40607 -106.31050 11637 ft 159 kts 181°
2026-04-22 01:36 39.39501 -106.31039 11650 ft 159 kts 184°
2026-04-22 01:36 39.38398 -106.31059 11659 ft 157 kts 181°
2026-04-22 01:36 39.37303 -106.31047 11673 ft 158 kts 184°
2026-04-22 01:36 39.36212 -106.31061 11685 ft 156 kts 182°
2026-04-22 01:37 39.35125 -106.31049 11696 ft 157 kts 183°
2026-04-22 01:37 39.34047 -106.31112 11708 ft 154 kts 189°
2026-04-22 01:37 39.32990 -106.31280 11721 ft 152 kts 188°
2026-04-22 01:37 39.31934 -106.31424 11732 ft 153 kts 190°
2026-04-22 01:38 39.30877 -106.31576 11747 ft 153 kts 188°
2026-04-22 01:38 39.29818 -106.31707 11748 ft 153 kts 189°
2026-04-22 01:38 39.28779 -106.32005 11748 ft 152 kts 197°
2026-04-22 01:38 39.27762 -106.32392 11747 ft 152 kts 199°
2026-04-22 01:39 39.26756 -106.32783 11743 ft 151 kts 199°
2026-04-22 01:39 39.25748 -106.33134 11740 ft 149 kts 191°
2026-04-22 01:39 39.24717 -106.33237 11737 ft 152 kts 187°
2026-04-22 01:39 39.23680 -106.33398 11737 ft 149 kts 193°
2026-04-22 01:40 39.22652 -106.33464 11737 ft 148 kts 188°
2026-04-22 01:40 39.21623 -106.33452 11740 ft 148 kts 180°
2026-04-22 01:40 39.20617 -106.33356 11720 ft 140 kts 182°
2026-04-22 01:40 39.19682 -106.33260 11717 ft 130 kts 180°
2026-04-22 01:41 39.18827 -106.33164 11669 ft 118 kts 182°
2026-04-22 01:41 39.18062 -106.32986 11529 ft 113 kts 152°
2026-04-22 01:41 39.17794 -106.32051 11345 ft 119 kts 75°
2026-04-22 01:41 39.18418 -106.31464 11127 ft 120 kts 10°
2026-04-22 01:42 39.19255 -106.31303 10733 ft 124 kts
2026-04-22 01:42 39.20104 -106.31326 10343 ft 120 kts 353°
2026-04-22 01:42 39.20899 -106.31436 10048 ft 107 kts 351°
2026-04-22 01:42 39.21574 -106.31571 9929 ft 88 kts 346°
2026-04-22 01:43 39.21998 -106.31665 9933 ft 29 kts 345°
2026-04-22 01:43 39.22148 -106.31697 9933 ft 19 kts
2026-04-22 01:43 39.22255 -106.31656 9936 ft 9 kts 24°
2026-04-22 01:43 39.22312 -106.31604 9937 ft 13 kts 10°
2026-04-22 01:44 39.22368 -106.31612 9938 ft 6 kts 329°
2026-04-22 01:44 39.22370 -106.31616 9938 ft 0 kts 253°